[[{"header":{"parameterUnit":"m.s-1","parameterCategory":2,"la1":30.2991,"la2":30.254,"lo1":-89.0895,"lo2":-89.0444,"dy":0.0017,"dx":0.0017,"nx":28,"ny":28,"refTime":"2025-01-13T03:00:00:Z","depth":"0","parameterNumber":2,"parameterNumberName":"U-component_of_CURRENTS"},"data":[0,0,0,0,0,0,0,0,0,0,0,0,0,0,0,0,0,0,0,0,0,0,0,0,0,0,0,0,0,0,0,0,0,0,0,0,0,0,0,0,0,0,0,0,0,0,0,0,0,0,0,0,0,0,0,0,0,0,-0.2559,-0.2559,0,-0.2579,-0.2579,-0.258,-0.2542,-0.2541,-0.254,-0.2539,-0.251,-0.2511,-0.2511,0,0,0,0,0,0,0,0,0,0,0,0,0,-0.2504,-0.2505,-0.2559,-0.2559,-0.256,-0.2579,-0.2579,-0.258,-0.2543,-0.2541,-0.254,-0.2539,-0.251,-0.2511,-0.2511,0,0,0,0,0,0,0,0,0,0,0,0,0,-0.2525,-0.2505,-0.2559,-0.2545,-0.2544,-0.2579,-0.2579,-0.258,-0.2543,-0.2541,-0.254,-0.2538,-0.251,-0.2511,-0.2511,-0.2546,0,0,-0.2512,-0.2512,0,0,0,0,0,0,0,0,-0.2524,-0.2527,-0.2546,-0.2546,-0.2545,-0.2558,-0.255,-0.2567,-0.2543,-0.2542,-0.2539,-0.2537,-0.2524,-0.2523,-0.2529,-0.2545,-0.2544,-0.2512,-0.2512,-0.2513,-0.2513,0,0,0,0,0,0,0,-0.2522,-0.2526,-0.2565,-0.2547,-0.2546,-0.2543,-0.2544,-0.2553,-0.254,-0.2542,-0.2539,-0.2545,-0.2523,-0.2529,-0.2528,-0.2543,-0.2512,-0.2512,-0.2513,-0.2513,-0.2565,-0.2566,0,0,0,0,0,0,-0.2524,-0.2525,-0.2565,-0.2566,-0.2532,-0.2546,-0.2546,-0.2554,-0.254,-0.2538,-0.2546,-0.2543,-0.2529,-0.2528,-0.2527,-0.2553,-0.2513,-0.2513,-0.2513,-0.2564,-0.2566,-0.2567,0,0,0,0,0,0,-0.2523,-0.2528,-0.2564,-0.2547,-0.2551,-0.2548,-0.2557,-0.2555,-0.2554,-0.2545,-0.254,-0.2546,-0.2528,-0.2526,-0.2533,-0.2552,-0.2513,-0.2513,-0.2563,-0.2565,-0.2566,-0.2615,0,0,0,0,0,0,-0.2522,-0.2527,-0.2531,-0.2547,-0.2552,-0.2587,-0.2559,-0.2557,-0.2561,-0.2557,-0.2544,-0.2539,-0.2526,-0.2533,-0.2534,-0.2552,-0.2514,-0.2561,-0.2564,-0.2566,-0.2611,-0.2618,-0.2623,0,0,0,0,0,-0.252,-0.2534,-0.2531,-0.2535,-0.2558,-0.2588,-0.2591,-0.2581,-0.2563,-0.2572,-0.2559,-0.2539,-0.2547,-0.2534,-0.2535,-0.2553,-0.256,-0.2563,-0.2565,-0.2609,-0.2616,-0.2623,0,0,0,0,0,0,-0.2513,-0.2533,-0.2529,-0.2548,-0.2567,-0.2582,-0.2588,-0.2585,-0.2585,-0.2575,-0.2557,-0.2553,-0.2568,-0.2558,-0.2544,-0.2576,-0.255,-0.2553,-0.2583,-0.259,-0.2596,-0.2596,-0.2514,0,0,0,0,0,-0.2515,-0.2525,-0.2549,-0.2562,-0.2573,-0.2581,-0.2589,-0.2589,-0.2594,-0.2591,-0.2583,-0.2576,-0.2584,-0.2582,-0.2586,-0.2606,-0.2588,-0.2618,-0.2623,-0.2628,-0.263,-0.2623,-0.2628,-0.2575,-0.2575,-0.2575,0,0,-0.2514,-0.2526,-0.2531,-0.256,-0.257,-0.2598,-0.2581,-0.2601,-0.2619,-0.259,-0.2604,-0.2599,-0.2594,-0.2614,-0.2619,-0.2604,-0.2635,-0.2632,-0.2636,-0.2634,-0.2626,-0.2631,-0.2635,-0.2577,-0.2577,-0.2577,0,0,-0.2524,-0.2532,-0.2547,-0.2569,-0.2593,-0.2607,-0.2614,-0.2634,-0.2636,-0.2658,-0.2641,-0.2647,-0.2655,-0.2657,-0.2658,-0.2701,-0.2668,-0.2702,-0.2728,-0.2722,-0.2726,-0.2729,-0.2713,-0.2714,-0.2701,-0.2701,-0.2701,0,-0.2521,-0.2544,-0.2557,-0.2585,-0.2602,-0.2612,-0.264,-0.2658,-0.2675,-0.2681,-0.2665,-0.2682,-0.2677,-0.2702,-0.2715,-0.2714,-0.2698,-0.2701,-0.2728,-0.2731,-0.2734,-0.2716,-0.2717,-0.2704,-0.2704,-0.2703,-0.2703,0,-0.2546,-0.2568,-0.2582,-0.2617,-0.2642,-0.2668,-0.2699,-0.2718,-0.2719,-0.2729,-0.275,-0.2746,-0.275,-0.2757,-0.2749,-0.2771,-0.275,-0.2738,-0.2708,-0.2742,-0.2722,-0.2722,-0.2708,-0.2707,-0.2706,-0.2705,0,0,-0.2524,-0.2586,-0.2588,-0.2608,-0.266,-0.2681,-0.2725,-0.2762,-0.2779,-0.2794,-0.2809,-0.2829,-0.2815,-0.2817,-0.2808,-0.2807,-0.2813,-0.2781,-0.2779,-0.276,-0.2789,-0.272,-0.2712,-0.2801,-0.2802,-0.2802,-0.2768,0,-0.2533,-0.2581,-0.2616,-0.2661,-0.2687,-0.2724,-0.2764,-0.2799,-0.2817,-0.2837,-0.2841,-0.2851,-0.2842,-0.2838,-0.284,-0.2821,-0.2815,-0.2823,-0.2764,-0.2762,-0.2692,-0.2711,-0.2605,-0.2561,-0.2768,-0.2768,-0.2768,0,-0.2537,-0.2569,-0.2612,-0.2675,-0.2691,-0.2721,-0.2772,-0.2811,-0.2854,-0.2867,-0.2882,-0.2881,-0.2893,-0.2871,-0.2857,-0.286,-0.2829,-0.281,-0.2808,-0.2725,-0.2692,-0.2562,-0.2553,-0.253,-0.2767,-0.2767,-0.2767,0,-0.2489,-0.2563,-0.259,-0.2613,-0.269,-0.2711,-0.275,-0.2806,-0.2835,-0.2875,-0.289,-0.2905,-0.2901,-0.2882,-0.2854,-0.285,-0.2825,-0.2812,-0.2722,-0.2717,-0.2605,-0.2589,-0.2561,-0.2795,-0.2795,-0.2795,-0.2795,0,-0.2473,-0.2493,-0.2566,-0.2577,-0.261,-0.2678,-0.2713,-0.2758,-0.2817,-0.2841,-0.2889,-0.2898,-0.2902,-0.2892,-0.2861,-0.2791,-0.2829,-0.2726,-0.2704,-0.2619,-0.2605,-0.2562,-0.2575,-0.2793,-0.2794,-0.2794,-0.2794,0,-0.2403,-0.2456,-0.2487,-0.2562,-0.2582,-0.2599,-0.2681,-0.2705,-0.278,-0.2812,-0.2824,-0.2886,-0.287,-0.2868,-0.2832,-0.2786,-0.2677,-0.2699,-0.2596,-0.2562,-0.2437,-0.2456,-0.2376,-0.2307,-0.2583,-0.2581,-0.2579,0,-0.2368,-0.2375,-0.2446,-0.2456,-0.2482,-0.2527,-0.2553,-0.2655,-0.2687,-0.279,-0.2791,-0.2819,-0.2808,-0.2753,-0.2686,-0.2615,-0.2597,-0.2468,-0.2442,-0.2414,-0.242,-0.2419,-0.2367,-0.2316,-0.2312,-0.2309,-0.2307,0,-0.2286,-0.2309,-0.2329,-0.2353,-0.2377,-0.2415,-0.2466,-0.2494,-0.2607,-0.2644,-0.2682,-0.269,-0.2675,-0.2565,-0.2498,-0.2437,-0.2392,-0.2402,-0.24,-0.2229,-0.2199,-0.2126,-0.2361,-0.228,-0.2283,-0.2285,-0.2287,-0.2288,-0.2203,-0.2194,-0.2216,-0.2224,-0.2254,-0.2268,-0.2254,-0.233,-0.2359,-0.2395,-0.2496,-0.2485,-0.2448,-0.2337,-0.2281,-0.215,-0.2198,-0.2073,-0.2105,-0.2112,-0.2023,-0.2197,-0.2076,-0.2078,-0.2079,-0.208,-0.2081,0,-0.2081,-0.2078,-0.2085,-0.2087,-0.2061,-0.2124,-0.2158,-0.2124,-0.2105,-0.2198,-0.2209,-0.222,-0.2107,-0.2092,-0.1983,-0.1886,-0.1835,-0.184,-0.1825,-0.1789,-0.1954,-0.1921,-0.1729,-0.1729,-0.1729,-0.1729,-0.1729,-0.1729,-0.2015,-0.1965,-0.1967,-0.1876,-0.1877,-0.1795,-0.178,-0.176,-0.1793,-0.1801,-0.1864,-0.1967,-0.1966,-0.2001,-0.1859,-0.1762,-0.1706,-0.1644,-0.1673,-0.1817,-0.1842,-0.1866,-0.1838,-0.1631,-0.1631,-0.1432,-0.1431,-0.143]},{"header":{"parameterUnit":"m.s-1","parameterCategory":2,"la1":30.2991,"la2":30.254,"lo1":-89.0895,"lo2":-89.0444,"dy":0.0017,"dx":0.0017,"nx":28,"ny":28,"refTime":"2025-01-13T03:00:00:Z","depth":"0","parameterNumber":3,"parameterNumberName":"V-component_of_CURRENTS"},"data":[0,0,0,0,0,0,0,0,0,0,0,0,0,0,0,0,0,0,0,0,0,0,0,0,0,0,0,0,0,0,0,0,0,0,0,0,0,0,0,0,0,0,0,0,0,0,0,0,0,0,0,0,0,0,0,0,0,0,-0.0487,-0.0486,0,-0.0396,-0.0395,-0.0394,-0.0333,-0.0332,-0.0332,-0.0332,-0.0215,-0.0212,-0.0209,0,0,0,0,0,0,0,0,0,0,0,0,0,-0.0559,-0.0558,-0.0487,-0.0486,-0.0485,-0.0396,-0.0395,-0.0393,-0.0333,-0.0332,-0.0332,-0.0331,-0.0215,-0.0212,-0.0209,0,0,0,0,0,0,0,0,0,0,0,0,0,-0.0503,-0.0558,-0.0487,-0.0444,-0.044,-0.0396,-0.0395,-0.0393,-0.0333,-0.0332,-0.0332,-0.0331,-0.0217,-0.0212,-0.0208,-0.0193,0,0,-0.0196,-0.0194,0,0,0,0,0,0,0,0,-0.0506,-0.05,-0.0452,-0.0447,-0.0442,-0.0376,-0.0377,-0.0325,-0.0333,-0.0372,-0.0332,-0.0331,-0.0267,-0.0259,-0.0242,-0.0187,-0.0182,-0.0195,-0.0193,-0.0191,-0.019,0,0,0,0,0,0,0,-0.051,-0.0504,-0.045,-0.0451,-0.0445,-0.0413,-0.0405,-0.0367,-0.0322,-0.0369,-0.0364,-0.0356,-0.0264,-0.0246,-0.0238,-0.018,-0.0195,-0.0192,-0.0189,-0.0187,-0.0097,-0.0097,0,0,0,0,0,0,-0.0527,-0.0508,-0.0453,-0.0447,-0.0475,-0.0413,-0.0403,-0.0397,-0.0323,-0.0312,-0.0357,-0.0354,-0.0253,-0.0243,-0.0234,-0.0209,-0.0191,-0.0187,-0.0184,-0.0097,-0.0097,-0.0097,0,0,0,0,0,0,-0.0528,-0.0523,-0.0456,-0.0476,-0.0465,-0.0412,-0.0405,-0.0395,-0.0377,-0.0314,-0.0302,-0.0349,-0.0253,-0.024,-0.0201,-0.0204,-0.0185,-0.0181,-0.0096,-0.0097,-0.0097,-0.016,0,0,0,0,0,0,-0.0531,-0.0524,-0.0526,-0.0477,-0.0465,-0.0438,-0.0405,-0.0394,-0.0373,-0.0368,-0.0304,-0.0292,-0.0251,-0.0208,-0.0197,-0.0198,-0.0178,-0.0096,-0.0096,-0.0097,-0.0158,-0.0162,-0.0166,0,0,0,0,0,-0.0534,-0.0541,-0.0527,-0.0521,-0.047,-0.0438,-0.0429,-0.0389,-0.0374,-0.037,-0.0324,-0.0294,-0.0201,-0.0204,-0.0192,-0.0192,-0.0096,-0.0096,-0.0097,-0.0156,-0.0161,-0.0166,0,0,0,0,0,0,-0.0572,-0.0534,-0.0518,-0.0513,-0.0482,-0.0428,-0.0422,-0.0395,-0.0356,-0.0352,-0.0293,-0.0279,-0.0246,-0.0211,-0.0216,-0.0166,-0.0145,-0.0142,-0.0194,-0.0199,-0.0203,-0.0217,-0.0174,0,0,0,0,0,-0.0583,-0.058,-0.0536,-0.0533,-0.0521,-0.0474,-0.0457,-0.0431,-0.0389,-0.0371,-0.0326,-0.0278,-0.0237,-0.0213,-0.0173,-0.0145,-0.0107,-0.0137,-0.0142,-0.0145,-0.0148,-0.0096,-0.0096,-0.0098,-0.0098,-0.0098,0,0,-0.0597,-0.0576,-0.0573,-0.0541,-0.0514,-0.0504,-0.0462,-0.0443,-0.043,-0.0365,-0.0337,-0.0292,-0.0234,-0.0202,-0.0184,-0.0173,-0.0125,-0.0146,-0.015,-0.015,-0.0096,-0.0096,-0.0096,-0.0098,-0.0098,-0.0098,0,0,-0.0627,-0.0605,-0.0614,-0.0594,-0.0562,-0.053,-0.0529,-0.0481,-0.0455,-0.0423,-0.0374,-0.0331,-0.0271,-0.0227,-0.0197,-0.0201,-0.0151,-0.0191,-0.0219,-0.0169,-0.0168,-0.0168,-0.0124,-0.0118,-0.0191,-0.0191,-0.0191,0,-0.0646,-0.065,-0.0612,-0.0615,-0.0604,-0.0548,-0.0554,-0.052,-0.0464,-0.0442,-0.0425,-0.0328,-0.0282,-0.0233,-0.0235,-0.021,-0.0176,-0.0207,-0.0175,-0.0173,-0.0171,-0.0126,-0.0119,-0.0194,-0.0194,-0.0193,-0.0193,0,-0.0682,-0.0685,-0.0689,-0.0675,-0.0656,-0.0653,-0.0603,-0.058,-0.0543,-0.0502,-0.0449,-0.0381,-0.0323,-0.0302,-0.0268,-0.0231,-0.021,-0.0189,-0.0165,-0.0175,-0.0127,-0.0119,-0.0198,-0.0197,-0.0196,-0.0196,0,0,-0.0722,-0.0718,-0.0718,-0.0727,-0.069,-0.068,-0.0658,-0.0618,-0.0601,-0.054,-0.0509,-0.0435,-0.0392,-0.0356,-0.0303,-0.0258,-0.0215,-0.0225,-0.0221,-0.0187,-0.0108,-0.0057,-0.0043,-0.019,-0.0189,-0.0188,-0.0082,0,-0.0763,-0.0796,-0.0771,-0.0792,-0.0805,-0.075,-0.0734,-0.0688,-0.0635,-0.0589,-0.0507,-0.0458,-0.0413,-0.0385,-0.0334,-0.0241,-0.0196,-0.0246,-0.0098,-0.0094,-0.0052,-0.0033,-0.0005,0.0096,-0.0073,-0.0072,-0.0071,0,-0.0804,-0.0822,-0.0859,-0.0859,-0.0857,-0.0855,-0.0817,-0.0793,-0.0709,-0.0667,-0.0597,-0.0525,-0.0441,-0.0407,-0.026,-0.0294,-0.0212,-0.0142,-0.0136,-0.006,-0.0027,0.008,0.0118,0.0256,-0.0058,-0.0059,-0.006,0,-0.086,-0.0879,-0.0914,-0.0915,-0.0904,-0.0903,-0.0887,-0.082,-0.08,-0.0711,-0.0678,-0.0567,-0.0504,-0.0391,-0.0239,-0.025,-0.0074,-0.0068,0.0055,0.0059,0.0128,0.0136,0.0313,0.0029,0.0029,0.0029,0.0028,0,-0.0913,-0.0939,-0.0948,-0.0969,-0.1003,-0.0966,-0.0973,-0.0933,-0.0872,-0.0846,-0.0726,-0.067,-0.0498,-0.0369,-0.0247,-0.0061,-0.0076,0.0058,0.0096,0.0106,0.0112,0.0271,0.0318,0.0033,0.0032,0.0031,0.003,0,-0.0967,-0.0973,-0.1018,-0.1029,-0.1035,-0.1058,-0.1047,-0.1044,-0.0972,-0.093,-0.0904,-0.074,-0.0562,-0.038,-0.0176,-0.0063,0.0194,0.0168,0.0169,0.0204,0.0437,0.0477,0.0688,0.0757,0.0316,0.0318,0.0319,0,-0.0998,-0.103,-0.1075,-0.1108,-0.1118,-0.1143,-0.1156,-0.1105,-0.1093,-0.0969,-0.0951,-0.0763,-0.0616,-0.0285,-0.0046,0.0196,0.0291,0.0355,0.0342,0.0468,0.0541,0.057,0.0613,0.0406,0.0409,0.0411,0.0412,0,-0.1055,-0.1072,-0.111,-0.1186,-0.1222,-0.1255,-0.1265,-0.1273,-0.1196,-0.1128,-0.1002,-0.0869,-0.0525,-0.0215,0.0113,0.0257,0.0459,0.04,0.0539,0.0639,0.0675,0.0751,0.031,0.0428,0.0427,0.0426,0.0425,0.0424,-0.1088,-0.1137,-0.1191,-0.1257,-0.1305,-0.1348,-0.137,-0.1351,-0.1314,-0.1193,-0.1058,-0.0822,-0.0371,0.0111,0.0282,0.0656,0.0612,0.0757,0.0798,0.0819,0.0884,0.0477,0.063,0.063,0.0629,0.0629,0.0628,0,-0.1128,-0.1183,-0.1257,-0.1334,-0.1394,-0.1397,-0.1424,-0.1411,-0.136,-0.1208,-0.1049,-0.0548,-0.01,0.0312,0.0843,0.1041,0.1069,0.1136,0.1185,0.121,0.0869,0.0872,0.1075,0.1075,0.1074,0.1074,0.1074,0.1074,-0.1152,-0.1231,-0.1274,-0.1384,-0.1435,-0.1483,-0.1493,-0.1447,-0.1342,-0.1074,-0.0788,-0.0564,0.005,0.0893,0.1379,0.1421,0.1558,0.1556,0.1628,0.1392,0.1359,0.1328,0.1345,0.1643,0.1644,0.1953,0.1956,0.1959]}],[{"header":{"parameterUnit":"m.s-1","parameterCategory":2,"la1":30.2991,"la2":30.254,"lo1":-89.0895,"lo2":-89.0444,"dy":0.0017,"dx":0.0017,"nx":28,"ny":28,"refTime":"2025-01-13T03:00:00:Z","depth":"2","parameterNumber":2,"parameterNumberName":"U-component_of_CURRENTS"},"data":[0,0,0,0,0,0,0,0,0,0,0,0,0,0,0,0,0,0,0,0,0,0,0,0,0,0,0,0,0,0,0,0,0,0,0,0,0,0,0,0,0,0,0,0,0,0,0,0,0,0,0,0,0,0,0,0,0,0,-0.2358,-0.2359,0,-0.2381,-0.2381,-0.2381,-0.2354,-0.2353,-0.2353,-0.2352,-0.2335,-0.2336,-0.2336,0,0,0,0,0,0,0,0,0,0,0,0,0,-0.2303,-0.2304,-0.2358,-0.2359,-0.2359,-0.2381,-0.2381,-0.2381,-0.2354,-0.2353,-0.2352,-0.2351,-0.2335,-0.2336,-0.2336,0,0,0,0,0,0,0,0,0,0,0,0,0,-0.2325,-0.2304,-0.2358,-0.235,-0.2349,-0.2381,-0.2381,-0.2381,-0.2355,-0.2353,-0.2352,-0.2351,-0.2335,-0.2336,-0.2336,-0.2365,0,0,-0.2338,-0.2338,0,0,0,0,0,0,0,0,-0.2324,-0.2327,-0.2351,-0.235,-0.235,-0.2365,-0.2356,-0.2374,-0.2355,-0.2351,-0.2352,-0.235,-0.2344,-0.2343,-0.2349,-0.2364,-0.2363,-0.2338,-0.2338,-0.2338,-0.2338,0,0,0,0,0,0,0,-0.2322,-0.2326,-0.2366,-0.2351,-0.2351,-0.2349,-0.235,-0.2359,-0.2352,-0.2351,-0.235,-0.2355,-0.2343,-0.2348,-0.2348,-0.2363,-0.2338,-0.2338,-0.2339,-0.2339,-0.2395,-0.2397,0,0,0,0,0,0,-0.2324,-0.2325,-0.2365,-0.2366,-0.2335,-0.2351,-0.2352,-0.236,-0.2353,-0.2351,-0.2356,-0.2354,-0.2348,-0.2347,-0.2347,-0.238,-0.2338,-0.2339,-0.2339,-0.2394,-0.2396,-0.2397,0,0,0,0,0,0,-0.2323,-0.2328,-0.2364,-0.2347,-0.2352,-0.2353,-0.2362,-0.2361,-0.2365,-0.2358,-0.2354,-0.236,-0.2347,-0.2347,-0.2358,-0.2379,-0.2339,-0.234,-0.2393,-0.2395,-0.2396,-0.2446,0,0,0,0,0,0,-0.2321,-0.2327,-0.2332,-0.2347,-0.2353,-0.2387,-0.2364,-0.2363,-0.2371,-0.2368,-0.236,-0.2357,-0.2346,-0.2357,-0.2359,-0.2379,-0.234,-0.2391,-0.2394,-0.2396,-0.2442,-0.2449,-0.2454,0,0,0,0,0,-0.2319,-0.2334,-0.2332,-0.2337,-0.236,-0.2388,-0.2391,-0.2386,-0.2372,-0.2383,-0.2375,-0.2358,-0.2372,-0.2359,-0.236,-0.2381,-0.239,-0.2393,-0.2396,-0.244,-0.2448,-0.2454,0,0,0,0,0,0,-0.2313,-0.2333,-0.2331,-0.2351,-0.237,-0.2384,-0.2393,-0.2392,-0.2396,-0.2389,-0.2374,-0.2372,-0.2391,-0.2382,-0.2368,-0.2404,-0.2378,-0.2381,-0.2412,-0.2419,-0.2425,-0.2424,-0.234,0,0,0,0,0,-0.2315,-0.2327,-0.235,-0.2364,-0.2376,-0.2385,-0.2395,-0.2397,-0.2404,-0.2404,-0.24,-0.2398,-0.2406,-0.2408,-0.2413,-0.2435,-0.2418,-0.2449,-0.2455,-0.246,-0.2461,-0.2455,-0.246,-0.2406,-0.2406,-0.2406,0,0,-0.2315,-0.2328,-0.2334,-0.2363,-0.2374,-0.2401,-0.2387,-0.2409,-0.2428,-0.2403,-0.2422,-0.2421,-0.2418,-0.244,-0.2448,-0.2432,-0.2468,-0.2463,-0.2467,-0.2465,-0.2459,-0.2464,-0.2468,-0.2408,-0.2407,-0.2407,0,0,-0.2326,-0.2336,-0.2351,-0.2373,-0.2399,-0.2412,-0.2421,-0.2443,-0.2448,-0.2473,-0.246,-0.247,-0.2482,-0.2485,-0.2487,-0.2531,-0.2501,-0.2534,-0.2561,-0.2556,-0.2561,-0.2564,-0.2551,-0.2553,-0.2534,-0.2534,-0.2534,0,-0.2325,-0.2347,-0.2361,-0.2388,-0.2406,-0.2419,-0.2447,-0.2465,-0.2487,-0.2495,-0.2484,-0.2506,-0.2504,-0.253,-0.2545,-0.2544,-0.2531,-0.2533,-0.2563,-0.2566,-0.2569,-0.2554,-0.2556,-0.2537,-0.2537,-0.2536,-0.2536,0,-0.2348,-0.2371,-0.2385,-0.242,-0.2446,-0.2472,-0.2504,-0.2526,-0.2532,-0.2544,-0.2569,-0.2569,-0.2577,-0.2586,-0.2579,-0.2604,-0.2585,-0.2572,-0.2542,-0.2577,-0.256,-0.256,-0.2541,-0.254,-0.2539,-0.2538,0,0,-0.2329,-0.2389,-0.2392,-0.2412,-0.2464,-0.2485,-0.253,-0.2568,-0.2587,-0.2607,-0.2626,-0.265,-0.2641,-0.2644,-0.2638,-0.2639,-0.265,-0.2616,-0.2614,-0.2598,-0.2632,-0.2562,-0.2555,-0.2639,-0.264,-0.264,-0.2613,0,-0.2338,-0.2385,-0.2419,-0.2464,-0.249,-0.2528,-0.2567,-0.2604,-0.2626,-0.265,-0.2658,-0.2673,-0.2667,-0.2667,-0.2671,-0.2656,-0.2653,-0.2658,-0.2605,-0.2603,-0.2533,-0.2554,-0.2357,-0.2311,-0.2613,-0.2613,-0.2613,0,-0.2343,-0.2374,-0.2418,-0.2479,-0.2494,-0.2526,-0.2579,-0.2618,-0.2664,-0.2681,-0.2701,-0.2704,-0.272,-0.27,-0.2693,-0.2695,-0.2669,-0.2652,-0.265,-0.2566,-0.2534,-0.2326,-0.23,-0.2613,-0.2613,-0.2613,-0.2613,0,-0.2299,-0.237,-0.2399,-0.2421,-0.2496,-0.252,-0.256,-0.2617,-0.2647,-0.2692,-0.271,-0.2729,-0.2732,-0.2716,-0.2693,-0.2691,-0.267,-0.2658,-0.2571,-0.2566,-0.2377,-0.2354,-0.2644,-0.2644,-0.2644,-0.2644,-0.2644,0,-0.2284,-0.2306,-0.2378,-0.239,-0.2425,-0.2492,-0.253,-0.2575,-0.2636,-0.2661,-0.2712,-0.2723,-0.2735,-0.2728,-0.27,-0.2636,-0.2674,-0.2575,-0.2554,-0.2389,-0.2369,-0.2614,-0.2611,-0.2643,-0.2644,-0.2644,-0.2644,0,-0.222,-0.2272,-0.2305,-0.2379,-0.24,-0.2421,-0.2502,-0.2527,-0.2603,-0.2637,-0.2651,-0.2715,-0.2705,-0.2706,-0.2677,-0.2633,-0.2585,-0.2551,-0.2356,-0.2312,-0.2482,-0.2482,-0.2447,-0.2444,-0.2442,-0.244,-0.2438,0,-0.2189,-0.2198,-0.2269,-0.228,-0.2309,-0.2356,-0.2382,-0.2482,-0.2512,-0.2615,-0.2616,-0.265,-0.2638,-0.2591,-0.252,-0.2453,-0.2522,-0.223,-0.2191,-0.2478,-0.2462,-0.2465,-0.2468,-0.196,-0.1954,-0.195,-0.1947,0,-0.2113,-0.2139,-0.216,-0.2186,-0.2212,-0.2248,-0.2299,-0.2324,-0.2433,-0.2468,-0.2503,-0.251,-0.2494,-0.2337,-0.2273,-0.2206,-0.2227,-0.2138,-0.2475,-0.205,-0.2019,-0.2004,-0.2022,-0.1907,-0.1911,-0.1914,-0.1916,-0.1918,-0.2038,-0.2032,-0.2056,-0.2066,-0.2097,-0.2107,-0.2092,-0.216,-0.2183,-0.2205,-0.2305,-0.2251,-0.2232,-0.2035,-0.1929,-0.1848,-0.2005,-0.1892,-0.1906,-0.1924,-0.1881,-0.1849,-0.1697,-0.17,-0.1702,-0.1704,-0.1706,0,-0.1925,-0.1925,-0.1933,-0.1937,-0.1911,-0.1974,-0.1999,-0.1957,-0.1929,-0.1983,-0.1983,-0.1779,-0.1683,-0.1679,-0.1502,-0.1466,-0.1447,-0.1388,-0.1357,-0.1397,-0.1432,-0.1365,-0.1044,-0.1042,-0.104,-0.1038,0,0,-0.1864,-0.1818,-0.1819,-0.1733,-0.1737,-0.1657,-0.1638,-0.1599,-0.1598,-0.1527,-0.1497,-0.1613,-0.1645,-0.1348,-0.127,-0.1134,-0.1254,-0.1072,-0.1604,-0.1609,-0.1642,-0.1723,-0.1664,0,0,0,0,0]},{"header":{"parameterUnit":"m.s-1","parameterCategory":2,"la1":30.2991,"la2":30.254,"lo1":-89.0895,"lo2":-89.0444,"dy":0.0017,"dx":0.0017,"nx":28,"ny":28,"refTime":"2025-01-13T03:00:00:Z","depth":"2","parameterNumber":3,"parameterNumberName":"V-component_of_CURRENTS"},"data":[0,0,0,0,0,0,0,0,0,0,0,0,0,0,0,0,0,0,0,0,0,0,0,0,0,0,0,0,0,0,0,0,0,0,0,0,0,0,0,0,0,0,0,0,0,0,0,0,0,0,0,0,0,0,0,0,0,0,-0.0325,-0.0324,0,-0.024,-0.0239,-0.0238,-0.0183,-0.0182,-0.0182,-0.0182,-0.0072,-0.0069,-0.0067,0,0,0,0,0,0,0,0,0,0,0,0,0,-0.0387,-0.0387,-0.0325,-0.0324,-0.0323,-0.024,-0.0239,-0.0238,-0.0183,-0.0182,-0.0182,-0.0182,-0.0073,-0.007,-0.0066,0,0,0,0,0,0,0,0,0,0,0,0,0,-0.0336,-0.0386,-0.0325,-0.0286,-0.0282,-0.0241,-0.0239,-0.0237,-0.0183,-0.0182,-0.0182,-0.0182,-0.0074,-0.007,-0.0066,-0.0049,0,0,-0.0054,-0.0052,0,0,0,0,0,0,0,0,-0.0339,-0.0334,-0.0293,-0.0289,-0.0284,-0.0222,-0.0221,-0.0173,-0.0183,-0.0219,-0.0182,-0.0181,-0.0121,-0.0113,-0.0097,-0.0043,-0.0039,-0.0053,-0.0051,-0.0049,-0.0048,0,0,0,0,0,0,0,-0.0343,-0.0337,-0.029,-0.0292,-0.0286,-0.0256,-0.0248,-0.0211,-0.0172,-0.0216,-0.0212,-0.0205,-0.0118,-0.0101,-0.0094,-0.0037,-0.0053,-0.005,-0.0047,-0.0046,0.004,0.004,0,0,0,0,0,0,-0.0359,-0.0341,-0.0293,-0.0288,-0.0313,-0.0255,-0.0247,-0.0242,-0.0173,-0.0162,-0.0205,-0.0202,-0.0108,-0.0098,-0.009,-0.0068,-0.0049,-0.0045,-0.0043,0.004,0.004,0.004,0,0,0,0,0,0,-0.036,-0.0355,-0.0296,-0.0313,-0.0303,-0.0255,-0.0249,-0.024,-0.0225,-0.0165,-0.0154,-0.0199,-0.0107,-0.0095,-0.0059,-0.0063,-0.0043,-0.004,0.004,0.004,0.004,-0.0022,0,0,0,0,0,0,-0.0363,-0.0357,-0.036,-0.0314,-0.0303,-0.028,-0.0249,-0.0239,-0.0221,-0.0217,-0.0156,-0.0145,-0.0106,-0.0065,-0.0055,-0.0057,-0.0037,0.004,0.004,0.004,-0.002,-0.0024,-0.0028,0,0,0,0,0,-0.0365,-0.0373,-0.0361,-0.0355,-0.0309,-0.028,-0.0272,-0.0235,-0.0222,-0.0219,-0.0176,-0.0147,-0.006,-0.0062,-0.005,-0.0051,0.004,0.004,0.004,-0.0018,-0.0024,-0.0028,0,0,0,0,0,0,-0.04,-0.0367,-0.0353,-0.035,-0.0321,-0.0271,-0.0266,-0.0242,-0.0206,-0.0203,-0.0147,-0.0133,-0.0103,-0.007,-0.0074,-0.0027,-0.0006,-0.0004,-0.0054,-0.0059,-0.0063,-0.0076,-0.0033,0,0,0,0,0,-0.0412,-0.0411,-0.0371,-0.0369,-0.0359,-0.0315,-0.03,-0.0276,-0.0237,-0.0221,-0.0178,-0.0134,-0.0095,-0.0072,-0.0034,-0.0008,0.0029,-0.0001,-0.0005,-0.0009,-0.0011,0.004,0.004,0.0039,0.0039,0.0039,0,0,-0.0425,-0.0407,-0.0406,-0.0377,-0.0352,-0.0343,-0.0305,-0.0288,-0.0277,-0.0215,-0.019,-0.0148,-0.0092,-0.0062,-0.0046,-0.0034,0.001,-0.0009,-0.0013,-0.0013,0.004,0.004,0.004,0.0038,0.0038,0.0038,0,0,-0.0454,-0.0436,-0.0446,-0.0428,-0.0399,-0.037,-0.037,-0.0325,-0.0302,-0.0273,-0.0226,-0.0187,-0.013,-0.0087,-0.0059,-0.0064,-0.0016,-0.0055,-0.0083,-0.0033,-0.0033,-0.0032,0.0009,0.0015,-0.0055,-0.0055,-0.0055,0,-0.0473,-0.0478,-0.0444,-0.0448,-0.0439,-0.0388,-0.0394,-0.0362,-0.0311,-0.0291,-0.0275,-0.0185,-0.0141,-0.0094,-0.0096,-0.0073,-0.0041,-0.007,-0.0039,-0.0037,-0.0035,0.0007,0.0013,-0.0058,-0.0058,-0.0058,-0.0057,0,-0.0507,-0.0512,-0.0517,-0.0505,-0.0489,-0.0487,-0.0441,-0.042,-0.0387,-0.0349,-0.03,-0.0235,-0.0181,-0.0162,-0.0129,-0.0093,-0.0074,-0.0053,-0.0029,-0.0039,0.0006,0.0014,-0.0063,-0.0061,-0.0061,-0.006,0,0,-0.0546,-0.0544,-0.0545,-0.0555,-0.0522,-0.0514,-0.0493,-0.0456,-0.0441,-0.0385,-0.0356,-0.0287,-0.0248,-0.0213,-0.0163,-0.0119,-0.0079,-0.0088,-0.0084,-0.0052,0.0025,0.0065,0.0078,-0.0054,-0.0052,-0.0052,0.0048,0,-0.0585,-0.0619,-0.0596,-0.0618,-0.0631,-0.058,-0.0566,-0.0524,-0.0475,-0.0432,-0.0355,-0.0309,-0.0267,-0.0242,-0.0192,-0.0103,-0.006,-0.0108,0.0035,0.0039,0.0072,0.0088,0.0062,0.0151,0.0056,0.0058,0.0059,0,-0.0625,-0.0644,-0.0681,-0.0682,-0.0681,-0.0681,-0.0647,-0.0625,-0.0547,-0.0508,-0.0442,-0.0374,-0.0295,-0.0263,-0.012,-0.0153,-0.0076,-0.0008,-0.0002,0.0063,0.0094,0.0148,0.0169,0.0072,0.0071,0.007,0.0069,0,-0.0679,-0.0699,-0.0735,-0.0736,-0.0727,-0.0728,-0.0715,-0.0653,-0.0634,-0.0552,-0.0523,-0.0416,-0.0359,-0.0247,-0.0103,-0.0112,0.0055,0.0064,0.0174,0.0177,0.0198,0.0202,0.0158,0.0158,0.0157,0.0157,0.0157,0,-0.073,-0.0756,-0.0768,-0.0789,-0.0824,-0.079,-0.08,-0.0763,-0.0707,-0.0684,-0.0571,-0.052,-0.0353,-0.0231,-0.0112,0.0063,0.0053,0.0176,0.0211,0.0176,0.0176,0.0142,0.0139,0.0161,0.016,0.0159,0.0159,0,-0.0782,-0.0789,-0.0835,-0.0848,-0.0855,-0.088,-0.0873,-0.0872,-0.0807,-0.077,-0.0746,-0.0594,-0.0426,-0.025,-0.0052,0.0056,0.0215,0.0275,0.0221,0.0249,0.0302,0.0294,0.0405,0.0407,0.0409,0.0411,0.0412,0,-0.0812,-0.0843,-0.0891,-0.0925,-0.0937,-0.0964,-0.098,-0.0934,-0.0923,-0.0811,-0.0795,-0.0623,-0.0486,-0.0171,0.0051,0.0283,0.0274,0.0386,0.0369,0.0307,0.033,0.0319,0.0309,0.037,0.0371,0.0371,0.0372,0,-0.0867,-0.0885,-0.0924,-0.1001,-0.1039,-0.1072,-0.1085,-0.1094,-0.1024,-0.0963,-0.0849,-0.0726,-0.0411,-0.0143,0.0165,0.0293,0.0349,0.041,0.0374,0.031,0.0282,0.0302,0.0292,0.0379,0.0378,0.0378,0.0377,0.0377,-0.09,-0.0947,-0.1003,-0.1071,-0.1119,-0.1163,-0.1185,-0.1168,-0.1137,-0.1022,-0.0903,-0.0684,-0.0421,0.0028,0.024,0.0441,0.0435,0.0483,0.0477,0.0471,0.0448,0.0425,0.0544,0.0544,0.0545,0.0545,0.0545,0,-0.0939,-0.0993,-0.1067,-0.1144,-0.1204,-0.1211,-0.1237,-0.122,-0.1175,-0.1033,-0.0888,-0.0574,-0.0262,0.0012,0.0338,0.0528,0.0502,0.0552,0.0478,0.0471,0.0464,0.0438,0.0533,0.0534,0.0534,0.0534,0,0,-0.0961,-0.1039,-0.1081,-0.1189,-0.1244,-0.1291,-0.1303,-0.1248,-0.1146,-0.0987,-0.0813,-0.0587,-0.0248,-0.0023,0.0216,0.0384,0.0373,0.0398,0.0389,0.0266,0.0258,0.0411,0.0361,0,0,0,0,0]}],[{"header":{"parameterUnit":"m.s-1","parameterCategory":2,"la1":30.2991,"la2":30.254,"lo1":-89.0895,"lo2":-89.0444,"dy":0.0017,"dx":0.0017,"nx":28,"ny":28,"refTime":"2025-01-13T03:00:00:Z","depth":"4","parameterNumber":2,"parameterNumberName":"U-component_of_CURRENTS"},"data":[0,0,0,0,0,0,0,0,0,0,0,0,0,0,0,0,0,0,0,0,0,0,0,0,0,0,0,0,0,0,0,0,0,0,0,0,0,0,0,0,0,0,0,0,0,0,0,0,0,0,0,0,0,0,0,0,0,0,-0.1644,-0.1645,0,-0.1703,-0.1704,-0.1704,-0.1737,-0.1737,-0.1737,-0.1738,-0.1795,-0.1796,-0.1798,0,0,0,0,0,0,0,0,0,0,0,0,0,-0.1561,-0.1562,-0.1644,-0.1645,-0.1646,-0.1703,-0.1704,-0.1705,-0.1737,-0.1737,-0.1737,-0.1738,-0.1795,-0.1796,-0.1798,0,0,0,0,0,0,0,0,0,0,0,0,0,-0.1605,-0.1563,-0.1644,-0.167,-0.1673,-0.1703,-0.1704,-0.1705,-0.1737,-0.1737,-0.1737,-0.1738,-0.1794,-0.1796,-0.1798,-0.1804,0,0,-0.1804,-0.1805,0,0,0,0,0,0,0,0,-0.1603,-0.1608,-0.1665,-0.1668,-0.1672,-0.1714,-0.1696,-0.1738,-0.1737,-0.1711,-0.1738,-0.1738,-0.1768,-0.1773,-0.1781,-0.1807,-0.1809,-0.1804,-0.1805,-0.1806,-0.1807,0,0,0,0,0,0,0,-0.1599,-0.1606,-0.1666,-0.1666,-0.167,-0.1679,-0.1686,-0.1704,-0.1736,-0.1713,-0.1716,-0.1725,-0.177,-0.1779,-0.1783,-0.181,-0.1804,-0.1806,-0.1807,-0.1808,-0.1911,-0.1913,0,0,0,0,0,0,-0.1595,-0.1603,-0.1664,-0.1668,-0.1639,-0.1681,-0.1688,-0.1699,-0.1736,-0.1743,-0.1725,-0.1726,-0.1776,-0.178,-0.1785,-0.186,-0.1806,-0.1808,-0.1809,-0.191,-0.1912,-0.1913,0,0,0,0,0,0,-0.1593,-0.16,-0.1662,-0.1638,-0.1646,-0.1682,-0.1694,-0.17,-0.1736,-0.1745,-0.1751,-0.1757,-0.1776,-0.1782,-0.1827,-0.186,-0.1809,-0.1811,-0.1908,-0.191,-0.1913,-0.1968,0,0,0,0,0,0,-0.159,-0.1599,-0.1618,-0.1637,-0.1648,-0.1699,-0.1694,-0.1701,-0.174,-0.1743,-0.1775,-0.1779,-0.1777,-0.1824,-0.1829,-0.1862,-0.1812,-0.1906,-0.1909,-0.1912,-0.1965,-0.1972,-0.1979,0,0,0,0,0,-0.1587,-0.1609,-0.1619,-0.1627,-0.1669,-0.17,-0.1707,-0.1732,-0.1741,-0.1764,-0.1786,-0.1779,-0.1845,-0.1827,-0.1832,-0.1867,-0.1905,-0.1908,-0.1912,-0.1961,-0.1971,-0.1979,0,0,0,0,0,0,-0.1584,-0.1615,-0.1626,-0.1657,-0.1686,-0.1707,-0.1734,-0.1749,-0.1784,-0.1795,-0.18,-0.1806,-0.1857,-0.1856,-0.1835,-0.1905,-0.1874,-0.1879,-0.191,-0.1919,-0.1926,-0.1919,-0.1814,0,0,0,0,0,-0.1592,-0.1617,-0.1645,-0.1673,-0.169,-0.1717,-0.1739,-0.1757,-0.1784,-0.1802,-0.1824,-0.1848,-0.1871,-0.1891,-0.191,-0.195,-0.1932,-0.1976,-0.1983,-0.1989,-0.1988,-0.1988,-0.1995,-0.1925,-0.1925,-0.1925,0,0,-0.16,-0.1619,-0.1635,-0.1675,-0.1699,-0.1732,-0.1732,-0.1774,-0.1807,-0.1802,-0.1862,-0.1878,-0.1888,-0.1933,-0.1956,-0.1939,-0.2002,-0.1994,-0.1999,-0.1993,-0.1993,-0.1999,-0.2005,-0.1927,-0.1927,-0.1926,0,0,-0.1617,-0.1646,-0.1671,-0.17,-0.1744,-0.1762,-0.178,-0.1821,-0.1849,-0.1901,-0.1906,-0.1941,-0.1984,-0.1995,-0.2004,-0.2064,-0.204,-0.2077,-0.211,-0.2111,-0.2116,-0.2121,-0.211,-0.2113,-0.2081,-0.2081,-0.2081,0,-0.1627,-0.1659,-0.1685,-0.1717,-0.1746,-0.1778,-0.1814,-0.1847,-0.19,-0.1923,-0.1931,-0.1995,-0.201,-0.2049,-0.2074,-0.208,-0.2071,-0.2075,-0.2119,-0.2123,-0.2126,-0.2114,-0.2116,-0.2084,-0.2084,-0.2083,-0.2083,0,-0.1653,-0.1693,-0.1713,-0.1763,-0.1798,-0.1837,-0.188,-0.1925,-0.1962,-0.1987,-0.2047,-0.2067,-0.2099,-0.2117,-0.2116,-0.2156,-0.2139,-0.2127,-0.2093,-0.2136,-0.2121,-0.2122,-0.2088,-0.2087,-0.2086,-0.2086,0,0,-0.1633,-0.1715,-0.1725,-0.1757,-0.1827,-0.1854,-0.1919,-0.1974,-0.2013,-0.2067,-0.2108,-0.2159,-0.2168,-0.2178,-0.2185,-0.2193,-0.2217,-0.2178,-0.2176,-0.2159,-0.2214,-0.2071,-0.2059,-0.2214,-0.2214,-0.2215,-0.2194,0,-0.1647,-0.1709,-0.1751,-0.1818,-0.1852,-0.1909,-0.1962,-0.2019,-0.2066,-0.2116,-0.2145,-0.2187,-0.2191,-0.2211,-0.2224,-0.222,-0.2224,-0.2223,-0.2181,-0.2179,-0.204,-0.2056,-0.2217,-0.2195,-0.2195,-0.2195,-0.2195,0,-0.1648,-0.1692,-0.1758,-0.1842,-0.1864,-0.1913,-0.1996,-0.2048,-0.212,-0.2157,-0.2202,-0.2222,-0.2259,-0.2247,-0.2259,-0.226,-0.2244,-0.2233,-0.2232,-0.2076,-0.2038,-0.2142,-0.2197,-0.2197,-0.2197,-0.2197,-0.2197,0,-0.1598,-0.1693,-0.1746,-0.1777,-0.1876,-0.1924,-0.198,-0.2062,-0.2104,-0.2181,-0.2212,-0.2254,-0.2277,-0.2273,-0.2263,-0.2267,-0.2254,-0.2249,-0.2103,-0.2093,-0.2204,-0.2199,-0.2245,-0.2245,-0.2245,-0.2245,-0.2245,0,-0.1573,-0.1619,-0.1734,-0.1759,-0.1824,-0.1906,-0.1975,-0.2037,-0.2118,-0.2151,-0.2227,-0.224,-0.2287,-0.2286,-0.2268,-0.218,-0.2256,-0.21,-0.2074,-0.2229,-0.2228,-0.2205,-0.22,-0.2244,-0.2244,-0.2245,-0.2245,0,-0.15,-0.1579,-0.1644,-0.1761,-0.1801,-0.1846,-0.1963,-0.1998,-0.2096,-0.2139,-0.2164,-0.2237,-0.2229,-0.2248,-0.2235,-0.2165,-0.2109,-0.2059,-0.222,-0.2205,-0.1948,-0.1947,-0.1886,-0.1881,-0.1876,-0.1872,-0.1869,0,-0.1463,-0.1492,-0.1624,-0.1659,-0.1717,-0.1801,-0.1847,-0.1967,-0.1997,-0.2108,-0.2103,-0.2148,-0.2174,-0.2036,-0.2078,-0.2019,-0.1997,-0.1957,-0.1954,-0.1928,-0.191,-0.1916,-0.1921,-0.1862,-0.1861,-0.186,-0.1859,0,-0.1383,-0.1447,-0.1497,-0.157,-0.1633,-0.1691,-0.1768,-0.1776,-0.1894,-0.2006,-0.1979,-0.1964,-0.195,-0.1929,-0.1895,-0.1857,-0.1976,-0.1909,-0.1919,-0.1916,-0.1898,-0.1886,-0.1896,-0.1843,-0.1845,-0.1847,-0.1848,0,-0.132,-0.1335,-0.1408,-0.1455,-0.1528,-0.1542,-0.1608,-0.1635,-0.1682,-0.181,-0.1792,-0.1845,-0.1923,-0.1843,-0.1812,-0.1762,-0.1736,-0.1677,-0.1698,-0.1716,-0.1669,-0.1623,-0.1449,0,0,0,0,0,-0.1243,-0.1241,-0.1281,-0.1324,-0.139,-0.1427,-0.1528,-0.1596,-0.1714,-0.1644,-0.1714,-0.1691,-0.1649,-0.1679,-0.1589,-0.1732,-0.1743,-0.1619,-0.1687,-0.1756,-0.1774,-0.1734,0,0,0,0,0,0,-0.119,-0.1222,-0.1233,-0.1194,-0.1197,-0.125,-0.1306,-0.1396,-0.1369,-0.1497,-0.1479,-0.1579,-0.1561,-0.1665,-0.1549,-0.1557,-0.1562,-0.1664,-0.1659,-0.1746,-0.1762,-0.1777,-0.1742,0,0,0,0,0]},{"header":{"parameterUnit":"m.s-1","parameterCategory":2,"la1":30.2991,"la2":30.254,"lo1":-89.0895,"lo2":-89.0444,"dy":0.0017,"dx":0.0017,"nx":28,"ny":28,"refTime":"2025-01-13T03:00:00:Z","depth":"4","parameterNumber":3,"parameterNumberName":"V-component_of_CURRENTS"},"data":[0,0,0,0,0,0,0,0,0,0,0,0,0,0,0,0,0,0,0,0,0,0,0,0,0,0,0,0,0,0,0,0,0,0,0,0,0,0,0,0,0,0,0,0,0,0,0,0,0,0,0,0,0,0,0,0,0,0,-0.0175,-0.0174,0,-0.0119,-0.0118,-0.0118,-0.008,-0.0079,-0.0079,-0.0079,0.0007,0.0009,0.0011,0,0,0,0,0,0,0,0,0,0,0,0,0,-0.0207,-0.0206,-0.0175,-0.0174,-0.0174,-0.0119,-0.0118,-0.0117,-0.008,-0.0079,-0.0079,-0.0079,0.0006,0.0009,0.0011,0,0,0,0,0,0,0,0,0,0,0,0,0,-0.0175,-0.0206,-0.0175,-0.0149,-0.0146,-0.0119,-0.0118,-0.0117,-0.008,-0.0079,-0.0079,-0.0079,0.0006,0.0009,0.0012,0.0026,0,0,0.0022,0.0023,0,0,0,0,0,0,0,0,-0.0177,-0.0174,-0.0153,-0.0151,-0.0148,-0.0107,-0.0098,-0.0068,-0.008,-0.0104,-0.0079,-0.0079,-0.0029,-0.0023,-0.0012,0.003,0.0034,0.0022,0.0024,0.0025,0.0026,0,0,0,0,0,0,0,-0.0179,-0.0176,-0.0152,-0.0153,-0.0149,-0.0126,-0.0121,-0.0092,-0.0067,-0.0102,-0.0099,-0.0095,-0.0027,-0.0015,-0.001,0.0035,0.0022,0.0025,0.0027,0.0028,0.0095,0.0095,0,0,0,0,0,0,-0.0191,-0.0178,-0.0154,-0.015,-0.0163,-0.0126,-0.0121,-0.0119,-0.0068,-0.0061,-0.0095,-0.0093,-0.0021,-0.0014,-0.0007,0.0009,0.0025,0.0028,0.003,0.0095,0.0095,0.0095,0,0,0,0,0,0,-0.0192,-0.0189,-0.0156,-0.0163,-0.0158,-0.0126,-0.0125,-0.0119,-0.0109,-0.0064,-0.0055,-0.0093,-0.002,-0.0011,0.0016,0.0013,0.003,0.0032,0.0095,0.0095,0.0095,0.0043,0,0,0,0,0,0,-0.0193,-0.019,-0.0196,-0.0165,-0.0158,-0.0147,-0.0125,-0.0118,-0.0108,-0.0105,-0.0059,-0.005,-0.0019,0.0011,0.0019,0.0018,0.0035,0.0095,0.0095,0.0095,0.0045,0.0041,0.0038,0,0,0,0,0,-0.0194,-0.0203,-0.0196,-0.0194,-0.0166,-0.0147,-0.0142,-0.0117,-0.0108,-0.0107,-0.0075,-0.0052,0.0016,0.0014,0.0023,0.0022,0.0095,0.0095,0.0095,0.0047,0.0042,0.0038,0,0,0,0,0,0,-0.0217,-0.0199,-0.0191,-0.0194,-0.0176,-0.0141,-0.014,-0.0123,-0.0098,-0.0096,-0.0052,-0.0041,-0.0019,0.0008,0.0005,0.0041,0.0059,0.006,0.0019,0.0015,0.0011,0.0001,0.0038,0,0,0,0,0,-0.0227,-0.0231,-0.0206,-0.0209,-0.0203,-0.0173,-0.0164,-0.0148,-0.0121,-0.011,-0.0077,-0.0043,-0.0012,0.0005,0.0035,0.0055,0.0087,0.0061,0.0057,0.0054,0.0052,0.0097,0.0097,0.0093,0.0093,0.0093,0,0,-0.0236,-0.0228,-0.0229,-0.0214,-0.0199,-0.0196,-0.0167,-0.0158,-0.0153,-0.0104,-0.0088,-0.0055,-0.001,0.0012,0.0024,0.0034,0.007,0.0053,0.005,0.005,0.0097,0.0097,0.0097,0.0093,0.0093,0.0093,0,0,-0.0259,-0.0251,-0.0262,-0.0252,-0.0236,-0.0217,-0.0218,-0.0189,-0.0173,-0.0154,-0.0117,-0.0087,-0.0044,-0.001,0.0013,0.0008,0.0048,0.0015,-0.0008,0.0035,0.0036,0.0037,0.0071,0.0076,0.0015,0.0015,0.0015,0,-0.0272,-0.0282,-0.0261,-0.0268,-0.0265,-0.0231,-0.024,-0.0218,-0.0182,-0.0169,-0.0157,-0.0088,-0.0053,-0.0016,-0.0019,0.0,0.0028,0.0003,0.003,0.0032,0.0034,0.0069,0.0075,0.0013,0.0013,0.0013,0.0013,0,-0.03,-0.031,-0.0315,-0.0314,-0.0306,-0.0309,-0.0279,-0.0266,-0.0245,-0.0217,-0.0181,-0.013,-0.0088,-0.0073,-0.0046,-0.0016,-0.0,0.0018,0.0039,0.0031,0.0069,0.0076,0.0009,0.001,0.0011,0.0011,0,0,-0.0324,-0.0335,-0.0338,-0.035,-0.0333,-0.0331,-0.0321,-0.0298,-0.0291,-0.0249,-0.023,-0.0175,-0.0144,-0.0116,-0.0075,-0.0037,-0.0002,-0.001,-0.0006,0.002,0.0088,0.0083,0.009,0.0021,0.0022,0.0023,0.0107,0,-0.0353,-0.0387,-0.0377,-0.0403,-0.0417,-0.0386,-0.0381,-0.0354,-0.032,-0.0291,-0.0229,-0.0197,-0.016,-0.0142,-0.0097,-0.0022,0.0015,-0.0026,0.0096,0.0099,0.0093,0.0098,0.0026,0.0112,0.0114,0.0115,0.0116,0,-0.0381,-0.0403,-0.0441,-0.0456,-0.0458,-0.0466,-0.0451,-0.044,-0.0384,-0.0356,-0.0305,-0.0252,-0.0185,-0.0158,-0.0035,-0.0063,0.0003,0.006,0.0065,0.0084,0.0107,0.0125,0.0129,0.0128,0.0127,0.0126,0.0125,0,-0.0414,-0.0444,-0.0481,-0.0487,-0.0495,-0.0505,-0.0503,-0.0464,-0.0456,-0.0396,-0.0377,-0.0286,-0.0243,-0.0144,-0.0024,-0.0028,0.0111,0.0125,0.0182,0.0182,0.0185,0.0183,0.0204,0.0204,0.0204,0.0203,0.0203,0,-0.0445,-0.0474,-0.0506,-0.0527,-0.0568,-0.0553,-0.0575,-0.0553,-0.0519,-0.0505,-0.0418,-0.0382,-0.0238,-0.0139,-0.0032,0.0097,0.0109,0.0179,0.0205,0.016,0.0155,0.0189,0.0187,0.0206,0.0206,0.0205,0.0205,0,-0.047,-0.0491,-0.054,-0.0573,-0.0589,-0.0618,-0.0638,-0.0644,-0.0604,-0.0581,-0.0564,-0.045,-0.0315,-0.0168,0.0002,0.0079,0.0208,0.0248,0.0185,0.0206,0.0252,0.0245,0.032,0.0321,0.0321,0.0322,0.0322,0,-0.0483,-0.0514,-0.0583,-0.0623,-0.0645,-0.0686,-0.071,-0.0692,-0.069,-0.0618,-0.0605,-0.0479,-0.0386,-0.0146,0.0001,0.0207,0.023,0.0289,0.0273,0.0246,0.0265,0.0257,0.0251,0.0323,0.0323,0.0323,0.0323,0,-0.0508,-0.054,-0.0582,-0.0668,-0.0718,-0.0762,-0.0791,-0.0797,-0.0758,-0.0727,-0.0622,-0.0486,-0.0335,-0.0148,0.0011,0.0156,0.025,0.0295,0.0295,0.0279,0.025,0.0266,0.0259,0.0325,0.0324,0.0324,0.0324,0,-0.0523,-0.0564,-0.063,-0.0699,-0.0768,-0.0812,-0.0827,-0.0809,-0.0796,-0.0706,-0.0675,-0.0495,-0.0391,-0.0174,-0.0026,0.0117,0.0149,0.0184,0.019,0.019,0.0126,0.0068,0.0111,0,0,0,0,0,-0.0529,-0.0579,-0.0653,-0.0729,-0.0797,-0.0832,-0.0864,-0.0863,-0.083,-0.076,-0.0711,-0.0561,-0.0321,-0.0218,-0.0074,-0.0033,0.0158,0.0137,0.0197,0.0334,0.0332,0.0278,0,0,0,0,0,0,-0.0536,-0.0608,-0.065,-0.0734,-0.0787,-0.0851,-0.0872,-0.0854,-0.0805,-0.0751,-0.0622,-0.0537,-0.0306,-0.0398,-0.0072,-0.0029,0.0025,0.0254,0.0257,0.0335,0.0333,0.0332,0.0276,0,0,0,0,0]}]]